RH
66 58 59 58 58 57 58 58 58 58 61 59 60 58 58 59 59 57 58 56 56 54 55 54 54 53 53 54 54 54 24 25
65 63 53 56 52 58 60 59 60 60 59 59 61 59 59 58 55 56 56 55 54 54 55 55 55 54 54 56 54 43 25 24
59 51 55 56 57 59 60 60 61 61 56 58 51 44 44 42 53 55 55 55 55 54 55 54 53 48 54 56 48 30 29 27
52 54 55 58 49 56 57 51 50 51 51 52 40 50 46 42 48 58 56 58 55 56 55 50 42 32 31 39 32 36 31 32
48 60 62 59 56 55 51 47 48 51 57 51 49 41 43 37 38 36 40 47 36 38 37 34 41 37 34 34 35 34 32 31
47 51 62 67 59 56 50 46 48 50 51 53 50 39 42 43 38 38 38 38 42 40 36 42 41 40 39 38 38 34 31 32
58 60 63 59 61 53 51 51 50 54 50 55 42 40 45 40 41 38 39 39 39 39 37 38 39 38 37 37 36 36 39 35
58 55 58 51 60 59 55 53 54 53 48 47 50 44 48 41 41 39 38 40 39 38 40 40 38 38 38 39 38 36 39 42
60 57 57 62 58 54 53 51 51 51 48 54 54 51 52 51 42 42 41 43 44 40 40 40 38 37 39 37 35 37 38 40
56 50 55 55 55 54 53 59 60 52 48 49 54 53 54 51 44 44 47 44 42 42 42 42 40 38 39 37 36 35 42 42
50 52 46 48 54 53 53 54 42 41 42 44 57 54 54 53 46 47 53 46 46 47 46 47 45 41 39 36 35 36 40 35
45 43 46 45 46 49 44 41 40 41 41 43 53 48 53 51 46 51 50 46 44 45 50 45 47 46 41 38 34 38 40 42
43 44 48 40 41 43 38 43 39 39 40 50 50 49 48 50 44 45 47 44 48 49 48 50 42 45 41 37 34 40 49 30
44 43 45 42 34 37 41 39 38 41 41 43 46 49 49 43 48 43 46 44 47 48 48 48 42 44 48 40 33 29 30 30
46 46 43 45 45 36 37 39 37 35 36 36 40 47 45 49 50 49 49 48 44 47 46 49 47 42 52 57 56 39 41 28
45 48 44 45 48 43 46 38 36 37 37 35 35 43 45 45 49 50 51 48 50 45 43 49 50 45 41 43 53 57 68 50
49 46 45 49 48 48 40 40 36 36 36 43 42 42 44 44 49 52 50 47 49 52 53 51 47 53 49 54 53 51 44 60
48 46 48 50 49 47 48 48 44 39 41 41 41 42 42 46 49 52 53 52 52 51 53 55 54 53 54 58 71 75 63 62
48 44 50 50 46 42 45 46 45 42 43 41 45 43 42 46 52 53 51 54 55 54 54 56 56 62 57 57 51 50 51 57
49 42 45 44 40 41 42 43 38 39 41 43 42 42 44 50 51 53 56 56 56 56 52 53 52 53 52 54 62 63 67 81
Wind_Speed
9 9 11 11 11 11 11 10 12 13 13 13 15 15 14 14 15 15 15 16 16 15 15 15 15 15 15 14 14 12 7 6
10 8 8 7 7 10 11 11 14 13 14 14 13 13 13 14 15 15 15 15 14 13 13 13 14 15 15 14 13 10 7 6
8 8 7 6 6 8 10 12 13 11 10 12 9 8 9 11 14 15 14 14 13 13 13 13 12 11 13 13 10 5 7 5
7 7 7 5 4 6 6 6 6 6 6 7 6 7 8 8 11 13 12 12 11 11 11 10 10 7 7 8 6 8 6 6
7 5 5 5 4 3 3 3 3 4 6 6 6 6 6 6 5 5 5 9 6 7 7 6 9 8 8 7 8 7 5 6
7 5 4 3 2 2 3 4 4 4 5 6 5 4 5 5 4 5 5 5 7 6 5 6 8 9 9 9 9 8 6 6
5 5 4 4 4 4 4 5 4 3 4 4 4 4 4 4 4 5 5 5 6 7 7 7 8 9 9 10 10 11 9 6
6 8 7 9 6 8 5 4 4 2 3 5 5 4 3 4 4 5 6 6 6 7 8 7 7 8 9 10 11 10 9 8
7 9 10 9 7 5 5 4 4 4 5 5 6 5 5 5 5 5 6 6 9 8 9 7 8 8 10 10 9 9 7 6
12 10 9 7 8 6 5 7 6 6 5 5 7 6 6 5 5 6 7 7 7 8 9 8 8 9 9 9 9 8 6 6
11 9 9 8 8 7 7 8 7 6 5 6 8 6 6 6 5 5 7 7 7 7 8 8 9 9 9 10 10 7 6 4
10 9 11 9 5 5 5 5 6 6 6 7 9 7 7 6 6 6 7 7 7 8 10 8 8 9 10 9 9 6 5 3
11 11 11 8 5 5 5 4 5 5 5 7 8 8 9 8 6 8 7 8 9 9 8 9 8 8 9 9 6 5 4 8
10 9 8 8 7 5 3 5 4 5 5 7 8 9 9 8 9 8 9 8 9 9 9 8 8 7 8 10 5 5 3 10
7 7 9 7 6 5 5 3 3 5 7 7 8 9 9 9 8 8 8 7 7 8 8 10 8 8 7 6 6 5 11 2
7 6 6 6 6 6 8 7 7 7 7 8 8 10 10 10 9 9 9 8 9 8 7 8 7 9 7 6 8 10 9 9
5 5 6 5 6 8 7 8 6 7 7 10 10 10 11 11 11 10 10 8 9 10 10 9 7 7 8 8 9 9 10 11
4 5 5 6 7 8 9 9 9 10 11 10 10 9 9 12 12 11 11 10 10 9 10 10 8 8 7 8 8 10 11 12
2 4 7 6 8 9 8 8 10 11 12 10 13 10 10 11 13 12 10 11 11 10 9 8 7 7 10 9 10 10 10 10
3 6 7 7 8 9 9 9 7 9 12 11 9 10 10 13 12 12 12 12 11 8 6 6 9 10 12 11 9 9 8 8
Wind_Direction
103 107 108 106 97 90 80 71 67 66 62 51 43 39 33 39 30 27 22 11 7 8 14 12 8 5 1 2 1 354 333 341
106 98 97 90 97 87 77 65 65 60 58 54 51 46 42 33 33 25 19 8 11 14 15 10 10 6 2 3 0 358 345 334
100 101 89 84 74 69 59 63 61 58 57 57 50 43 44 37 32 24 19 15 18 13 13 11 7 6 6 4 352 355 340 331
97 103 91 70 72 61 63 62 56 59 63 55 52 44 42 41 35 31 25 22 13 10 10 6 360 355 354 351 351 343 330 324
95 95 79 48 46 54 54 57 53 59 55 49 50 45 36 34 29 19 10 11 3 357 360 5 0 355 353 345 339 329 320 310
112 85 63 50 49 46 54 33 40 32 52 49 40 41 41 34 29 19 14 7 359 357 350 349 350 350 347 339 336 326 317 303
86 85 58 64 57 52 40 30 18 21 57 54 35 35 39 28 31 22 15 2 1 350 342 343 340 341 340 339 335 327 318 305
80 79 71 62 49 41 26 15 5 37 68 46 38 24 23 20 18 14 11 358 351 343 340 331 331 332 333 336 330 325 317 312
84 67 57 54 46 27 37 10 11 40 34 24 10 11 10 355 358 358 360 348 338 339 335 322 321 326 324 324 324 327 315 329
61 51 49 47 45 41 44 39 40 37 25 0 355 350 349 340 342 352 351 336 333 334 330 325 323 324 324 322 321 317 306 302
55 46 46 49 60 72 59 54 46 40 30 20 9 359 350 336 341 340 334 328 328 327 324 324 319 324 325 323 321 314 305 303
67 54 42 42 48 52 51 52 46 29 24 20 15 16 10 349 332 331 329 327 331 333 324 327 320 329 324 319 323 323 306 318
59 54 42 40 34 19 21 20 22 27 19 13 9 1 350 338 338 332 334 333 333 332 330 328 332 340 315 334 317 1 137 336
66 58 47 40 37 24 359 5 20 6 2 4 357 350 347 339 338 334 334 329 332 335 334 326 319 338 327 316 327 303 260 327
69 61 53 42 31 31 21 360 357 360 0 352 350 342 342 335 329 326 321 316 320 321 325 327 321 320 320 311 321 322 325 307
70 59 58 48 27 34 29 22 7 360 348 345 342 342 337 333 329 324 317 313 303 307 305 305 303 315 317 296 283 297 308 307
70 71 56 38 40 29 19 18 7 350 347 339 341 337 338 336 332 324 316 312 305 301 299 298 298 295 306 304 299 287 285 285
105 73 54 36 31 25 20 11 356 352 351 343 342 335 334 336 334 326 321 319 317 312 304 295 297 297 295 296 288 288 290 291
107 56 53 36 27 20 9 2 357 351 348 342 338 339 338 338 334 332 329 327 321 319 314 313 318 313 304 298 291 285 286 280
67 52 49 35 20 11 9 8 358 353 349 343 338 338 335 335 335 334 336 335 334 335 332 328 318 311 307 302 297 293 287 273